{"data":{"norad_id":66591,"epoch":"2026-09-20T20:35:36.038400Z","epoch_age_seconds":56000,"freshness":"FRESH","line1":"1 66591U 25270D   26263.85805600  .00012130  00000+0  44924-3 0  9996","line2":"2 66591  43.0007  34.0303 0001284 272.3514  87.7191 15.27605814 47558","mean_motion":15.27605814,"eccentricity":0.0001284,"inclination_deg":43.0007,"raan_deg":34.0303,"arg_perigee_deg":272.3514,"mean_anomaly_deg":87.7191,"bstar":0.00044924,"rev_number":4755,"period_min":94.265155762231,"perigee_km":482.09083435559,"apogee_km":483.85276709561,"semimajor_km":6861.1088007256,"source":"CELESTRAK","updated_at":"2026-09-21T09:00:35.976231Z"}}